Location: *
(58.4167°N, 22.5000°E)
Time: 11:20:16
(UTC+00:00)

Cosmos 2016 Rocket - Pass Details

Date: 22 September 2019
Orbit: 946 x 1001 km, 83.0° (Epoch: 19 October)

Event Time Altitude Azimuth Distance (km) Brightness Sun altitude
Rises 21:47:38 0° 346° (NNW) 3,633 8.1 -31.0°
Reaches altitude 10° 21:50:11 10° 341° (NNW) 2,684 7.2 -31.1°
Enters shadow 21:55:45 49° 278° (W) 1,212 4.5 -31.2°
